When you browse on this site, cookies collect data to enhance your experience and personalize the content and advertising you see.
Visit our Privacy Policy to learn more. By continuing to use the site, you agree to this use of cookies and data.
  • In Romania
  • List of Countries
  • For 7 days
  • Water Temperature
  • Weather Map
  • Weather Widgets
  • user-avatar
    Login

    Hourly Weather Chelmsford

    Today, 25 May, Monday

    Time Temperature Precipitation Wind Pressure Humidity
    00:00 +13°C° 0 mm 1 mps 772 mmHg 88%
    01:00 +12°C° 0 mm 1 mps 772 mmHg 89%
    02:00 +12°C° 0 mm 2 mps 772 mmHg 89%
    03:00 +10°C° 0 mm 2 mps 772 mmHg 90%
    04:00 +12°C° 0 mm 1 mps 772 mmHg 88%
    05:00 +13°C° 0 mm 1 mps 772 mmHg 87%
    06:00 +14°C° 0 mm 1 mps 773 mmHg 88%
    07:00 +16°C° 0 mm 1 mps 773 mmHg 82%
    08:00 +18°C° 0 mm 1 mps 773 mmHg 77%
    09:00 +20°C° 0 mm 1 mps 773 mmHg 71%
    10:00 +20°C° 0 mm 2 mps 773 mmHg 68%
    11:00 +20°C° 0 mm 2 mps 773 mmHg 64%
    12:00 +23°C° 0 mm 2 mps 773 mmHg 54%
    13:00 +23°C° 0 mm 2 mps 772 mmHg 55%
    14:00 +23°C° 0 mm 2 mps 772 mmHg 55%
    15:00 +23°C° 0 mm 2 mps 772 mmHg 56%
    16:00 +23°C° 0.1 mm 2 mps 772 mmHg 61%
    17:00 +21°C° 0.1 mm 2 mps 772 mmHg 66%
    18:00 +21°C° 0.1 mm 2 mps 772 mmHg 71%
    19:00 +19°C° 0 mm 2 mps 772 mmHg 75%
    20:00 +17°C° 0 mm 2 mps 773 mmHg 80%
    21:00 +16°C° 0 mm 2 mps 773 mmHg 84%
    22:00 +15°C° 0 mm 2 mps 773 mmHg 84%
    23:00 +14°C° 0 mm 2 mps 773 mmHg 84%

    Tomorrow, 26 May, Tuesday

    Time Temperature Precipitation Wind Pressure Humidity
    00:00 +14°C° 0 mm 2 mps 773 mmHg 84%
    01:00 +13°C° 0 mm 2 mps 773 mmHg 85%
    02:00 +13°C° 0 mm 2 mps 773 mmHg 86%
    03:00 +12°C° 0 mm 1 mps 773 mmHg 86%
    04:00 +13°C° 0 mm 1 mps 773 mmHg 84%
    05:00 +14°C° 0 mm 1 mps 773 mmHg 81%
    06:00 +15°C° 0 mm 1 mps 773 mmHg 78%
    07:00 +16°C° 0 mm 1 mps 773 mmHg 74%
    08:00 +19°C° 0 mm 1 mps 773 mmHg 69%
    09:00 +20°C° 0 mm 1 mps 774 mmHg 64%
    10:00 +20°C° 0 mm 2 mps 773 mmHg 61%
    11:00 +21°C° 0 mm 2 mps 773 mmHg 57%
    12:00 +23°C° 0 mm 2 mps 773 mmHg 53%
    13:00 +23°C° 0 mm 2 mps 773 mmHg 55%
    14:00 +23°C° 0 mm 2 mps 773 mmHg 56%
    15:00 +23°C° 0 mm 2 mps 773 mmHg 57%
    16:00 +23°C° 0 mm 2 mps 773 mmHg 63%
    17:00 +21°C° 0 mm 2 mps 772 mmHg 69%
    18:00 +20°C° 0 mm 2 mps 772 mmHg 75%
    19:00 +20°C° 0 mm 1 mps 773 mmHg 78%
    20:00 +19°C° 0 mm 1 mps 773 mmHg 81%
    21:00 +18°C° 0 mm 1 mps 773 mmHg 84%
    22:00 +18°C° 0 mm 1 mps 773 mmHg 85%
    23:00 +16°C° 0 mm 1 mps 773 mmHg 86%

    Day after tomorrow, 27 May, Wednesday

    Time Temperature Precipitation Wind Pressure Humidity
    00:00 +16°C° 0 mm 1 mps 773 mmHg 87%
    01:00 +16°C° 0 mm 1 mps 773 mmHg 87%
    02:00 +15°C° 0 mm 2 mps 773 mmHg 87%
    03:00 +15°C° 0 mm 2 mps 773 mmHg 87%
    04:00 +15°C° 0 mm 2 mps 773 mmHg 87%
    05:00 +15°C° 0 mm 2 mps 773 mmHg 87%
    06:00 +15°C° 0 mm 2 mps 773 mmHg 87%
    07:00 +16°C° 0 mm 3 mps 773 mmHg 83%
    08:00 +17°C° 0 mm 3 mps 774 mmHg 79%
    09:00 +18°C° 0 mm 3 mps 774 mmHg 76%
    10:00 +18°C° 0.1 mm 3 mps 774 mmHg 75%
    11:00 +18°C° 0.1 mm 4 mps 774 mmHg 73%
    12:00 +19°C° 0.1 mm 4 mps 774 mmHg 72%
    13:00 +19°C° 0 mm 4 mps 774 mmHg 70%
    14:00 +19°C° 0 mm 4 mps 774 mmHg 68%
    15:00 +19°C° 0 mm 4 mps 773 mmHg 66%
    16:00 +18°C° 0 mm 4 mps 773 mmHg 70%
    17:00 +17°C° 0 mm 4 mps 773 mmHg 74%
    18:00 +15°C° 0 mm 4 mps 773 mmHg 77%
    19:00 +13°C° 0 mm 4 mps 774 mmHg 81%
    20:00 +12°C° 0 mm 3 mps 774 mmHg 85%
    21:00 +10°C° 0 mm 3 mps 774 mmHg 89%
    22:00 +9°C° 0 mm 3 mps 774 mmHg 89%
    23:00 +9°C° 0 mm 3 mps 774 mmHg 89%

    28 May, Thursday

    Time Temperature Precipitation Wind Pressure Humidity
    00:00 +8°C° 0 mm 3 mps 774 mmHg 89%
    01:00 +8°C° 0 mm 3 mps 774 mmHg 90%
    02:00 +8°C° 0 mm 3 mps 773 mmHg 91%
    03:00 +8°C° 0 mm 3 mps 773 mmHg 92%
    04:00 +9°C° 0 mm 3 mps 773 mmHg 89%
    05:00 +10°C° 0 mm 3 mps 773 mmHg 86%
    06:00 +11°C° 0 mm 3 mps 773 mmHg 83%
    07:00 +13°C° 0 mm 3 mps 773 mmHg 77%
    08:00 +14°C° 0 mm 4 mps 773 mmHg 71%
    09:00 +15°C° 0 mm 4 mps 773 mmHg 64%
    10:00 +17°C° 0 mm 4 mps 772 mmHg 62%
    11:00 +17°C° 0 mm 4 mps 772 mmHg 59%
    12:00 +18°C° 0 mm 4 mps 772 mmHg 57%
    13:00 +18°C° 0 mm 4 mps 771 mmHg 57%
    14:00 +18°C° 0 mm 4 mps 771 mmHg 58%
    15:00 +18°C° 0 mm 4 mps 770 mmHg 59%
    16:00 +17°C° 0 mm 4 mps 770 mmHg 62%
    17:00 +15°C° 0 mm 4 mps 770 mmHg 65%
    18:00 +14°C° 0 mm 4 mps 770 mmHg 68%
    19:00 +13°C° 0 mm 3 mps 770 mmHg 72%
    20:00 +11°C° 0 mm 3 mps 770 mmHg 77%
    21:00 +10°C° 0 mm 3 mps 770 mmHg 81%
    22:00 +9°C° 0 mm 2 mps 770 mmHg 83%
    23:00 +9°C° 0 mm 2 mps 770 mmHg 84%

    29 May, Friday

    Time Temperature Precipitation Wind Pressure Humidity
    00:00 +9°C° 0 mm 2 mps 769 mmHg 86%
    01:00 +9°C° 0 mm 2 mps 769 mmHg 86%
    02:00 +8°C° 0 mm 2 mps 769 mmHg 87%
    03:00 +8°C° 0 mm 2 mps 769 mmHg 88%
    04:00 +9°C° 0 mm 2 mps 769 mmHg 85%
    05:00 +10°C° 0 mm 2 mps 769 mmHg 83%
    06:00 +11°C° 0 mm 3 mps 769 mmHg 81%
    07:00 +13°C° 0 mm 3 mps 768 mmHg 74%
    08:00 +14°C° 0 mm 3 mps 768 mmHg 68%
    09:00 +17°C° 0 mm 4 mps 768 mmHg 62%
    10:00 +17°C° 0 mm 4 mps 768 mmHg 61%
    11:00 +18°C° 0 mm 4 mps 768 mmHg 59%
    12:00 +18°C° 0 mm 4 mps 767 mmHg 58%
    13:00 +18°C° 0 mm 4 mps 767 mmHg 57%
    14:00 +18°C° 0 mm 4 mps 767 mmHg 56%
    15:00 +17°C° 0 mm 4 mps 766 mmHg 55%
    16:00 +17°C° 0 mm 4 mps 766 mmHg 59%
    17:00 +15°C° 0 mm 4 mps 766 mmHg 62%
    18:00 +14°C° 0 mm 4 mps 766 mmHg 66%
    19:00 +13°C° 0 mm 4 mps 766 mmHg 72%
    20:00 +11°C° 0 mm 4 mps 766 mmHg 79%
    21:00 +9°C° 0 mm 3 mps 766 mmHg 85%
    22:00 +9°C° 0 mm 3 mps 766 mmHg 87%
    23:00 +9°C° 0 mm 3 mps 766 mmHg 89%

    30 May, Saturday

    Time Temperature Precipitation Wind Pressure Humidity
    00:00 +8°C° 0 mm 3 mps 766 mmHg 91%
    01:00 +8°C° 0 mm 3 mps 766 mmHg 92%
    02:00 +8°C° 0 mm 3 mps 766 mmHg 93%
    03:00 +8°C° 0 mm 3 mps 766 mmHg 93%
    04:00 +9°C° 0 mm 3 mps 766 mmHg 91%
    05:00 +10°C° 0 mm 3 mps 766 mmHg 88%
    06:00 +11°C° 0 mm 3 mps 766 mmHg 86%
    07:00 +13°C° 0 mm 4 mps 766 mmHg 80%
    08:00 +14°C° 0 mm 4 mps 766 mmHg 75%
    09:00 +17°C° 0 mm 4 mps 766 mmHg 69%
    10:00 +17°C° 0 mm 4 mps 766 mmHg 67%
    11:00 +18°C° 0 mm 4 mps 766 mmHg 64%
    12:00 +17°C° 0 mm 5 mps 765 mmHg 62%
    13:00 +17°C° 0 mm 5 mps 765 mmHg 62%
    14:00 +17°C° 0 mm 5 mps 765 mmHg 62%
    15:00 +17°C° 0 mm 5 mps 765 mmHg 62%
    16:00 +18°C° 0 mm 4 mps 764 mmHg 66%
    17:00 +17°C° 0 mm 4 mps 764 mmHg 69%
    18:00 +15°C° 0 mm 4 mps 764 mmHg 73%
    19:00 +14°C° 0 mm 4 mps 764 mmHg 76%
    20:00 +13°C° 0 mm 4 mps 764 mmHg 80%
    21:00 +12°C° 0 mm 4 mps 765 mmHg 84%
    22:00 +11°C° 0 mm 4 mps 764 mmHg 86%
    23:00 +11°C° 0 mm 3 mps 764 mmHg 88%
    Show more